Terminal Aerodrome Forecast
Issued by NWS

Current Version | Previous Version | Graphics & Text | Print | Product List | Glossary On
Versions: 1 2 3 4 5 6 7 8 9 10 11 12 13 14 15
000
FTUS41 KILN 272000 AAB
TAFLCK
TAF AMD
KLCK 272005Z 2720/2818 32005KT P6SM SCT040 BKN050
      TEMPO 2720/2721 5SM -SHRA BKN040
     FM280000 03004KT P6SM SCT250
      TEMPO 2810/2813 00000KT 3SM BR SKC=

USA.gov is the U.S. government's official web portal to all federal, state and local government web resources and services.